Indianapolis, IN

9:46 PM EST on November 21, 2019 (GMT -0500)
Indianapolis International

Weather History for KIND - September, 2019

Change the Weather History Date:

Sunday, September 1, 2019

  Actual Average Record
Temperature  
Mean Temperature 72 °F 72 °F  
Max Temperature 79 °F 83 °F 100 °F (1953)
Min Temperature 65 °F 62 °F 44 °F (1987)
Degree Days  
Heating Degree Days 0 0  
Month to date heating degree days 0 0  
Since 1 July heating degree days 0 4  
Cooling Degree Days 7 8  
Month to date cooling degree days 7 8  
Year to date cooling degree days 1046 929  
Growing Degree Days 22 (Base 50)    
Moisture  
Dew Point 63 °F    
Average Humidity 75    
Maximum Humidity 87    
Minimum Humidity 62    
Precipitation  
Precipitation T in 0.10 in 7.20 in (2003)
Month to date precipitation T 0.10  
Year to date precipitation 36.55 29.43  
Snow  
Snow 0.00 in 0.00 in 0.00 in ()
Month to date snowfall 0.0 0.0  
Since 1 July snowfall 0.0 0.0  
Since 1 September snowfall 0.0 0.0  
Snow Depth 0.00 in    
Sea Level Pressure  
Sea Level Pressure 30.10 in    
Wind  
Wind Speed 5 mph (NE)    
Max Wind Speed 10 mph    
Max Gust Speed 15 mph    
Visibility 10 miles    
Events Rain , Thunderstorm    
T = Trace of Precipitation, MM = Missing Value Source: NWS Daily Summary

Daily Weather History Graph

Daily Weather History Graph

Search for Another Location

Airport or City:

Astronomy

Sep. 01, 2019 Rise Set
Actual Time 7:13 AM EDT 8:16 PM EDT
Civil Twilight 6:45 AM EDT 8:44 PM EDT
Nautical Twilight 6:12 AM EDT 9:17 PM EDT
Astronomical Twilight 5:37 AM EDT 9:51 PM EDT
Moon 9:42 AM EDT (9/1) 10:04 PM EDT (9/1)
Length of Visible Light 13h 58m
Length of Day
13h 03m
Waxing Crescent, 8% of the Moon is Illuminated
Sep 1
Waxing Crescent
Sep 5
First Quarter
Sep 14
Full
Sep 21
Last Quarter
Sep 28
New

Hourly Weather History & Observations

Time (EDT) Temp. Dew Point Humidity Pressure Visibility Wind Dir Wind Speed Gust Speed Precip Events Conditions
12:54 AM 68.0 °F 63.0 °F 84% 30.15 in 10.0 mi East 6.9 mph - N/A   Mostly Cloudy
1:54 AM 66.9 °F 62.1 °F 84% 30.15 in 10.0 mi East 8.1 mph - N/A   Mostly Cloudy
2:54 AM 66.0 °F 61.0 °F 84% 30.14 in 10.0 mi East 4.6 mph - N/A   Mostly Cloudy
3:54 AM 66.0 °F 61.0 °F 84% 30.12 in 10.0 mi East 6.9 mph - N/A   Mostly Cloudy
4:54 AM 66.0 °F 61.0 °F 84% 30.11 in 10.0 mi East 5.8 mph - N/A   Mostly Cloudy
5:54 AM 66.0 °F 61.0 °F 84% 30.11 in 10.0 mi East 5.8 mph - N/A   Mostly Cloudy
6:54 AM 64.9 °F 61.0 °F 87% 30.10 in 10.0 mi East 4.6 mph - N/A   Overcast
7:54 AM 66.0 °F 61.0 °F 84% 30.11 in 10.0 mi ENE 5.8 mph - N/A   Mostly Cloudy
8:54 AM 66.0 °F 61.0 °F 84% 30.12 in 10.0 mi ENE 5.8 mph - N/A   Overcast
9:54 AM 66.9 °F 61.0 °F 81% 30.12 in 10.0 mi ENE 5.8 mph - N/A   Overcast
10:54 AM 68.0 °F 62.1 °F 81% 30.13 in 10.0 mi East 4.6 mph - 0.00 in   Overcast
11:37 AM 69.1 °F 63.0 °F 81% 30.17 in 10.0 mi NW 5.8 mph - N/A   Overcast
11:54 AM 68.0 °F 63.0 °F 84% 30.17 in 10.0 mi NW 4.6 mph - 0.00 in Rain Light Rain
12:07 PM 68.0 °F 63.0 °F 84% 30.16 in 10.0 mi NNW 4.6 mph - 0.00 in Rain , Thunderstorm Light Rain
12:16 PM 68.0 °F 64.0 °F 87% 30.15 in 10.0 mi North 4.6 mph - 0.00 in   Overcast
1:54 PM 73.0 °F 64.0 °F 73% 30.09 in 10.0 mi Variable 3.5 mph - N/A   Mostly Cloudy
2:54 PM 75.0 °F 66.0 °F 73% 30.09 in 10.0 mi Variable 3.5 mph - N/A   Mostly Cloudy
3:54 PM 75.0 °F 64.9 °F 71% 30.07 in 10.0 mi Calm Calm - N/A   Mostly Cloudy
4:54 PM 78.1 °F 64.9 °F 64% 30.06 in 10.0 mi NW 5.8 mph - N/A   Mostly Cloudy
5:54 PM 78.1 °F 64.0 °F 62% 30.05 in 10.0 mi Variable 3.5 mph - N/A   Mostly Cloudy
6:54 PM 78.1 °F 64.9 °F 64% 30.04 in 10.0 mi North 5.8 mph - N/A   Scattered Clouds
7:54 PM 75.0 °F 66.0 °F 73% 30.04 in 10.0 mi North 6.9 mph - N/A   Scattered Clouds
8:54 PM 73.9 °F 66.0 °F 76% 30.04 in 10.0 mi North 6.9 mph - N/A   Mostly Cloudy
9:54 PM 73.0 °F 66.9 °F 81% 30.04 in 10.0 mi NE 8.1 mph - N/A   Mostly Cloudy
10:54 PM 72.0 °F 66.0 °F 81% 30.07 in 10.0 mi East 4.6 mph - N/A   Overcast
11:54 PM 71.1 °F 66.0 °F 84% 30.06 in 10.0 mi Calm Calm - N/A   Scattered Clouds